Regional Weather Roundup
Issued by NWS Pendleton, OR

Home | Current Version | Previous Version | Text Only | Print | Product List | Glossary On
Versions: 1 2 3 4 5 6 7 8 9 10 11 12 13 14 15 16 17 18 19 20 21 22 23 24 25 26 27 28 29 30 31 32 33 34 35 36 37 38 39 40 41 42 43 44 45 46 47 48 49 50
000
ASUS46 KPDT 291625
RWRPDT
PENDLETON REGIONAL WEATHER ROUNDUP
NATIONAL WEATHER SERVICE PENDLETON OREGON
900 AM PDT FRI MAY 29 2015

NOTE: FAIR INDICATES FEW OR NO CLOUDS BELOW 12,000 FEET WITH NO
SIGNIFICANT WEATHER AND/OR OBSTRUCTIONS TO VISIBILITY.

# INDICATES UNOFFICIAL STATION AND DATA

WAZ520-291710-
EAST SLOPES OF WASHINGTON CASCADES

CITY            SKY/WX      TMP DP  RH  WIND    PRES   REMARKS
#BULLFROG 2SW   N/A         64  55  73  N2      27.63F
#BUMPING DAM    N/A         55  N/A N/A N6      N/A
#CLE ELUM HS    N/A         62  53  72  CALM    29.96F
#CLE ELUM LAKE  N/A         62  54  75  CALM    29.90F
#CLIFFDEL 2NW   N/A         56  52  86  CALM    N/A
#GLENWOOD       N/A         64  57  78  CALM    29.91F
#NELSON         N/A         61  56  84  CALM    29.94F
#NELSON 3SW     N/A         61  53  75  CALM    30.11F
#NILE           N/A         61  54  78  W1      29.23F
#RONALD 2NW     N/A         61  18  19  CALM    29.91F
#SNOWDEN        N/A         68  39  35  CALM    N/A
#TEANAWAY 4NE   N/A         63  57  81  CALM    N/A
#TROUT LAKE 1NE N/A         68  55  63  CALM    29.91F
$$

WAZ521-291710-
SIMCOE HIGHLANDS

CITY            SKY/WX      TMP DP  RH  WIND    PRES   REMARKS
#BICKLETON HS   N/A         70  40  34  CALM    N/A
#CENTERVILLE 4W N/A         71  56  59  N1      29.73F
#GOLDENDALE     N/A         66  48  52  CALM    N/A
#GOLDENDALE 5WNWN/A         70  53  55  CALM    29.89F
#GOODNOE HILLS  N/A         76  51  42  E5      N/A
#LYLE 6NE       N/A         66  55  68  CALM    29.88S
$$

WAZ026-291710-
KITTITAS VALLEY

CITY            SKY/WX      TMP DP  RH  WIND    PRES   REMARKS
ELLENSBURG AP   PTCLDY      70  56  61  VRB3    30.01F
YTC-OPS AREA    N/A         66  50  56  N8      30.02S
#ELLENSBURG CWU N/A         70  56  61  CALM    29.88F
#ELLENSBURG 3NE N/A         67  56  68  CALM    30.01S
#ELLENSBURG 1E  N/A         67  56  68  CALM    N/A
#KITTITAS 3S    N/A         65  58  78  CALM    29.92F
#THORP 6N       N/A         66  53  63  CALM    29.93F
$$

WAZ027-291710-
YAKIMA VALLEY

CITY            SKY/WX      TMP DP  RH  WIND    PRES   REMARKS
SUNNYSIDE AP    SUNNY       70  55  59  E6      29.97S
YAKIMA AIRPORT  SUNNY       74  55  51  VRB5    29.98F
#DONALD 2NE     N/A         82  43  25  CALM    28.82S
#GRANDVIEW      N/A         72  55  55  CALM    29.94F
#MABTON         N/A         72  57  59  E1      29.96S
#NACHES 2SW     N/A         68  57  68  W5      30.01S
#OUTLOOK DOT    N/A         N/A N/A N/A W2      N/A
#SELAH 8E       N/A         76  51  42  N3      N/A
#TERRACE HTS    N/A         68  57  68  CALM    29.88F
#TOPPENISH      N/A         71  55  57  CALM    29.84F
#WAPATO 4NE     N/A         82  43  25  CALM    28.82S
#WEST VALLEY    N/A         72  54  53  NW1     29.90F
#W YAKIMA       N/A         71  57  61  N2      29.91F
#WHITE SWAN 5E  N/A         72  56  57  NE2     29.93S
#WILEY CITY 3W  N/A         73  51  46  CALM    29.95F
$$

WAZ028-291710-
LOWER COLUMBIA BASIN...WASHINGTON

CITY            SKY/WX      TMP DP  RH  WIND    PRES   REMARKS
HANFORD         MOSUNNY     73  52  48  NW9     29.96F
PASCO           SUNNY       69  55  61  N7      29.97F
RICHLAND AWOS   SUNNY       72  55  55  NE6     29.97F
#BASIN CITY 5SW N/A         69  58  68  NE3     29.97S
#BENTON CITY    N/A         71  56  59  CALM    29.85S
#CONNELL 5N     N/A         71  53  53  E3      29.92F
#CONNELL 5NW    N/A         70  55  59  CALM    29.89F
#ELTOPIA        N/A         72  56  57  CALM    29.90F
#ELTOPIA 6NW    N/A         70  57  63  N6      28.94F
#KAHLOTUS       N/A         69  54  59  S8      29.92F
#KENNEWICK      N/A         64  55  73  N2      27.63F
#KENNEWICK 3S   N/A         67  56  68  CALM    29.94S
#PATERSON       N/A         69  55  61  SE1     29.92F
#PROSSER        N/A         72  53  51  N1      29.93S
#SAGEMOOR 2W    N/A         69  57  66  CALM    29.79F
#TOUCHET 2S     N/A         68  60  76  NW1     29.92F
#WEST PASCO     N/A         71  57  61  N1      29.95F
$$

WAZ029-291710-
FOOTHILLS OF THE BLUES...WASHINGTON

CITY            SKY/WX      TMP DP  RH  WIND    PRES   REMARKS
WALLA WALLA AP  PTCLDY      72  52  49  CALM    29.97F
#DAYTON SCHOOL  N/A         74  50  43  W1      29.99F
#LOWDEN 2SE     N/A         67  58  73  W1      29.93F
#PLEASANT VIEW 1N/A         69  55  61  CALM    29.96S
#PRESCOTT       N/A         73  59  62  CALM    29.91F
#SUDBURY        N/A         72  N/A N/A CALM    N/A
#WHITMAN COLLEGEN/A         70  54  57  SW3     29.97F
#WAITSBURG 8N   N/A         78  27  15  SE2     29.82R
#WALLA WALLA U  N/A         70  56  61  CALM    29.92F
#WHITMAN MISSIONN/A         67  58  73  CALM    29.94F
$$

WAZ030-291710-
BLUE MOUNTAINS...WASHINGTON

CITY            SKY/WX      TMP DP  RH  WIND    PRES   REMARKS
#DIXIE 5SE      N/A         69  54  59  CALM    29.98S
$$

ORZ009-041-WAZ024-291710-
COLUMBIA RIVER GORGE

CITY            SKY/WX      TMP DP  RH  WIND    PRES   REMARKS
HOOD RIVER AP   PTCLDY      68  55  63  CALM    29.96F
THE DALLES AP   PTCLDY      70  55  59  N5      29.94F
#ARLINGTON AIRPON/A         73  50  44  E6      29.80S
#ARLINGTON HS   N/A         71  51  49  CALM    29.84
#CELILO DOT     N/A         72  55  55  CALM    N/A
#MOSIER 1S      N/A         68  49  51  CALM    29.94S
#MURDOCK        N/A         68  60  76  NW3     29.94F

$$

ORZ510-291710-
NORTH CENTRAL OREGON

CITY            SKY/WX      TMP DP  RH  WIND    PRES   REMARKS
#CHENOWITH 1W   N/A         66  52  61  NW9     N/A
#COW CYN RST AREN/A         68  N/A N/A SW6     N/A
#DUFUR 9E       N/A         68  53  59  N3      29.92F
#GRASS VALLEY 1SN/A         73  52  48  NE3     29.91R
#KENT DOT       N/A         72  44  37  NE6     N/A
#MAUPIN SCHOOL  N/A         72  53  51  CALM    29.96F
#MORO SCHOOL    N/A         73  56  55  NE5     29.98F
#SHANIKO 5WSW   N/A         72  42  34  NW3     N/A
#SHANIKO 4NW    N/A         72  44  37  E2      30.04S
#TYGH VALLEY 2NEN/A         69  54  59  CALM    29.89F
#WAPANITIA AIRPON/A         72  53  51  CALM    29.91S
#WASCO DOT      N/A         73  52  48  NW6     N/A
#WASCO AIRPORT  N/A         71  51  49  N1      N/A
#WASCO 5NE      N/A         74  54  50  CALM    29.91S
$$

ORZ511-291710-
CENTRAL OREGON

CITY            SKY/WX      TMP DP  RH  WIND    PRES   REMARKS
BEND AIRPORT    PTCLDY      68  46  45  SW3     30.04F
MADRAS AIRPORT  SUNNY       68  50  53  CALM    30.03S
PRINEVILLE AP   SUNNY       70  41  35  S5      30.03F
REDMOND AIRPORT SUNNY       67  47  49  VRB3    30.03S
#BEND 1SW       N/A         65  50  58  CALM    N/A
#BEND-AWBREY    N/A         64  51  63  CALM    29.88F
#BEND-KIM LN    N/A         65  51  60  SW2     30.02F
#CROOKED RVR RANN/A         71  52  51  CALM    29.88F
#CULVER         N/A         70  50  49  CALM    29.97F
#LAKE BILLY CHINN/A         70  23  17  CALM    30.06F
#POWELL BUTTE 3EN/A         66  45  47  SE3     N/A
#POWELL BUTTE   N/A         76  55  48  N2      29.67S
#PRINEVILLE 3N  N/A         66  50  56  W2      29.87F
#WARM SPRINGS   N/A         72  52  49  CALM    29.96F

$$


ORZ509-291710-
EAST SLOPES OF OREGON CASCADES

CITY            SKY/WX      TMP DP  RH  WIND    PRES   REMARKS
#BLUE BOX PASS  N/A         61   6  11  SE1     N/A
#CAMP SHERMAN   N/A         65  50  58  CALM    29.90F
#LA PINE 4NW    N/A         62  50  65  CALM    29.96F
#SISTERS AIRPOR N/A         69  57  66  CALM    30.17S
#SISTERS ODOT   N/A         68  N/A N/A CALM    N/A
#SISTERS 1NW    N/A         66  48  52  NE6     N/A
#SISTERS 3N     N/A         66  50  56  CALM    30.04S
#SUNRIVER       N/A         63  52  67  S2      29.80F
#TUMALO 3W      N/A         68  49  51  E1      29.75F
#WANOGA BUTTE D N/A         61  36  39  SW3     N/A

$$

ORZ044-291710-
LOWER COLUMBIA BASIN...OREGON

CITY            SKY/WX      TMP DP  RH  WIND    PRES   REMARKS
HERMISTON       SUNNY       72  54  53  N3      29.95F
#BOARDMAN SCHOOLN/A         68  57  68  NW1     29.96F
#ECHO 8SW       N/A         73  57  57  N3      29.96F
#IONE SCHOOL    N/A         75  48  38  CALM    29.93F
#IRRIGON 4NW    N/A         72  56  57  E2      N/A
#UMATILLA SCHOOLN/A         76  63  64  CALM    29.96S
#UMATILLA       N/A         73  54  51  CALM    29.86F
$$

ORZ507-291710-
NORTHERN FOOTHILLS OF THE BLUES

CITY            SKY/WX      TMP DP  RH  WIND    PRES   REMARKS
PENDLETON AIRPT LGT RAIN    72  51  48  S5      29.97F
#ADAMS 3WNW     N/A         75  56  52  CALM    29.91F
#ATHENA         N/A         78  52  40  CALM    29.92F
#CAYUSE         N/A         74  57  55  E2      29.90F
#HELIX SCHOOL   N/A         71  55  57  S5      29.91F
#HELIX 3N       N/A         73  53  49  SE5     29.96S
#HOLDMAN 6E     N/A         74  50  43  N3      29.73S
#M-F FERNDALE   N/A         65  57  75  CALM    29.96S
#M-F GROVE ELEM N/A         70  54  57  CALM    29.96S
#M-FREEWATER 5SEN/A         72  57  59  N2      29.96F
#PENDLETON DNTN N/A         73  54  51  CALM    29.96S
#PDT AQUATIC CTRN/A         70  55  59  CALM    29.95F
#PENDLETON 5NE  N/A         76  57  52  CALM    29.93F
#PDT SUNRIDGE   N/A         73  53  49  CALM    29.97F
#PENDLETON 7NW  N/A         76  55  48  CALM    28.92F
#PILOT ROCK     N/A         74  52  46  CALM    29.99F
#TUTUILLA       N/A         72  55  55  CALM    29.95F
#UMAPINE 2E     N/A         69  59  70  CALM    29.93F
#WESTON SCHOOL  N/A         75  50  41  CALM    29.94F

$$

ORZ508-291710-
SOUTHERN FOOTHILLS OF THE BLUES

CITY            SKY/WX      TMP DP  RH  WIND    PRES   REMARKS
#AJAX           N/A         71  45  39  N3      29.92F
#CONDON SCHOOL  N/A         75  48  38  CALM    29.97F
#CONDON 5W      N/A         71  45  39  E8      30.00F
#FOSSIL SCHOOL  N/A         74  48  40  CALM    29.95F
#HEPPNER EOC    N/A         76  48  37  CALM    29.83F
#HEPPNER 4NE    N/A         74  49  41  N2      29.89F
#LEXINGTON 2SE  N/A         78  51  39  N7      29.94F
#RUGGS 5NE      N/A         78  47  34  NE3     30.17F
#RUGGS 2SW      N/A         74  49  41  CALM    29.90F

$$

ORZ502-503-291710-
BLUE MOUNTAINS

CITY            SKY/WX      TMP DP  RH  WIND    PRES   REMARKS
MEACHAM         SUNNY       70  48  46  CALM    30.07F
#BATTLE MTN DOT N/A         58  52  80  S7      N/A
#HEPPNER 15SE   N/A         69  45  42  NW1     29.99S
#LADD CYN SMT   N/A         62  40  44  SE15    N/A
#LONG CREEK HS  N/A         64  51  63  CALM    30.03S
#N POWDER DOT   N/A         62  46  56  SW1     N/A
#PIKES PEAK     N/A         68  48  49  SW7     27.99S
#TOLLGATE       N/A         64  47  54  S1      30.04S
#TROY SCHOOL    N/A         65  53  65  CALM    29.83F
#UKIAH          N/A         59  50  72  CALM    30.02F
#WESTON 4E      N/A         70  51  51  SE6     29.85F
$$

ORZ505-291710-
JOHN DAY BASIN

CITY            SKY/WX      TMP DP  RH  WIND    PRES   REMARKS
JOHN DAY        SUNNY       70  48  46  E7      30.08F
#JOHN DAY KJDY  N/A         70  55  59  NE1     29.97F
#DAYVILLE SCHOOLN/A         66  46  48  E1      30.01F
#MITCHELL       N/A         73  53  49  E1      30.14F
#MONUMENT HS    N/A         67  48  50  E1      30.03F
#MT. VERNON 5SE N/A         71  43  36  SE7     30.04F
$$

ORZ506-291710-
OCHOCO AND JOHN DAY HIGHLANDS

CITY            SKY/WX      TMP DP  RH  WIND    PRES   REMARKS
#BUCK CREEK DOT N/A         66  66  100 E10     N/A
#PAULINA SCHOOL N/A         66  47  50  CALM    30.06S
#PINE MTN OBS   N/A         59  37  44  S8      N/A
#PRAIRIE CITY   N/A         68  52  57  W1      29.96F
#SENECA         N/A         58  N/A N/A CALM    N/A
#SENECA 9NW     N/A         54  46  74  CALM    29.99F
$$

ORZ049-291710-
GRANDE RONDE VALLEY

CITY            SKY/WX      TMP DP  RH  WIND    PRES   REMARKS
LA GRANDE       SUNNY       70  46  42  S14     30.06F
#COVE           N/A         65  56  73  CALM    30.07F
#COVE SCHOOL    N/A         66  53  63  CALM    30.05F
#ELGIN 3N       N/A         65  50  58  SW1     30.04F
#ELGIN 1E       N/A         64  51  63  CALM    N/A
#ISLAND CITY 4N N/A         62  58  87  CALM    29.97S
#LADD CYN DOT   N/A         67  48  50  S10     N/A
#LA GRANDE ELEM N/A         66  51  58  E1      30.09F
#UNION 1S       N/A         68  51  55  SE7     29.89F
$$

ORZ050-291710-
WALLOWA COUNTY

CITY            SKY/WX      TMP DP  RH  WIND    PRES   REMARKS
JOSEPH AIRPORT  N/A         64  46  52  N5      30.12
#ENTERPRISE HS  N/A         64  52  65  CALM    30.09F
#IMNAHA SCHOOL  N/A         67  52  59  SE1     30.03F
#IMNAHA 10S     N/A         69  53  57  CALM    30.05F
#JOSEPH 3N      N/A         59  47  64  CALM    30.11F
#JOSEPH 3W      N/A         66  50  56  E1      29.96S
#LOSTINE        N/A         62  51  67  N1      29.78F
#MT HOWARD 8000 N/A         51  38  61  W3      30.29R
#PROMISE 1S     N/A         64  51  63  CALM    30.06S
#SHEEP RDG 7000 N/A         55  38  53  CALM    30.00F
#WALLOWA SCHOOL N/A         61  51  70  CALM    30.89F



$$



USA.gov is the U.S. government's official web portal to all federal, state and local government web resources and services.